Terminal Aerodrome Forecast
Issued by NWS

Home | Current Version | Previous Version | Text Only | Print | Product List | Glossary On
Versions: 1 2 3 4 5 6 7 8 9 10 11 12 13 14 15 16 17 18 19 20 21 22 23 24 25 26 27 28
000
FTUS42 KJAX 200600 AAA
TAFCRG
TAF AMD
KCRG 200641Z 2007/2106 36010G18KT P6SM SCT010 BKN020
      TEMPO 2007/2010 4SM BR OVC008
     FM201000 36014G25KT P6SM SCT010 BKN015 OVC025
      TEMPO 2010/2014 4SM BR OVC008
     FM201600 36017G28KT P6SM SCT010 BKN015
     FM210000 02011KT P6SM SCT015 BKN025=

USA.gov is the U.S. government's official web portal to all federal, state and local government web resources and services.